Location: Chmeln�
(49.6483°N, 14.9871°E)
Time: 08:45:22
(UTC+00:00)

Meteor 2-19 Rocket - Pass Details

Date: 18 September 2020
Orbit: 935 x 959 km, 82.5° (Epoch: 24 October)

Event Time Altitude Azimuth Distance (km) Brightness Sun altitude
Rises 19:56:45 0° 350° (N) 3,641 8.2 -26.4°
Reaches altitude 10° 19:59:17 10° 353° (N) 2,688 7.4 -26.7°
Maximum altitude 20:05:26 75° 78° (ENE) 983 4.3 -27.4°
Enters shadow 20:05:39 74° 99° (E) 987 4.3 -27.5°
